AAL551 KPHL-KMIA

Flight info

Callsign AAL551
Flight time N/A
Altitude 40000
Route OOD TEBEE HAYDO TRPOD Q409 CRPLR BGBRD Q101 SKARP Y313 HOAGG BNFSH3
Aircraft B788/H-SDE1E2E3FGHIJ2J3J4J5M1RWXY/LB1D1

Departure

Time 2026-05-06 13:51
Airport Philadelphia International Airport (KPHL)

Arrival

Time N/A
Airport Miami International Airport (KMIA)
Time Latitude Longitude Altitude Speed Heading
2026-05-06 13:25 39.87240 -75.25301 31 ft 0 kts 72°
2026-05-06 13:39 39.87237 -75.25316 31 ft 3 kts 73°
2026-05-06 13:39 39.87232 -75.25346 31 ft 4 kts 95°
2026-05-06 13:40 39.87243 -75.25381 30 ft 5 kts 141°
2026-05-06 13:40 39.87255 -75.25391 27 ft 4 kts 169°
2026-05-06 13:40 39.87259 -75.25392 28 ft 15 kts 174°
2026-05-06 13:43 39.87255 -75.25392 29 ft 2 kts 174°
2026-05-06 13:43 39.87223 -75.25387 30 ft 7 kts 172°
2026-05-06 13:44 39.87163 -75.25371 31 ft 11 kts 167°
2026-05-06 13:44 39.87094 -75.25406 31 ft 12 kts 236°
2026-05-06 13:44 39.87072 -75.25525 31 ft 16 kts 262°
2026-05-06 13:44 39.87047 -75.25671 31 ft 17 kts 255°
2026-05-06 13:45 39.86991 -75.25778 31 ft 13 kts 190°
2026-05-06 13:45 39.86848 -75.25747 31 ft 10 kts 165°
2026-05-06 13:45 39.86767 -75.25719 31 ft 14 kts 165°
2026-05-06 13:46 39.86655 -75.25679 31 ft 19 kts 166°
2026-05-06 13:46 39.86581 -75.25584 31 ft 10 kts 88°
2026-05-06 13:46 39.86602 -75.25469 31 ft 18 kts 76°
2026-05-06 13:46 39.86637 -75.25291 31 ft 21 kts 73°
2026-05-06 13:47 39.86675 -75.25107 31 ft 21 kts 77°
2026-05-06 13:47 39.86712 -75.24921 31 ft 21 kts 74°
2026-05-06 13:47 39.86751 -75.24734 31 ft 22 kts 76°
2026-05-06 13:47 39.86791 -75.24543 31 ft 22 kts 75°
2026-05-06 13:48 39.86828 -75.24347 30 ft 23 kts 76°
2026-05-06 13:48 39.86869 -75.24149 31 ft 23 kts 75°
2026-05-06 13:48 39.86907 -75.23947 31 ft 23 kts 77°
2026-05-06 13:48 39.86948 -75.23745 31 ft 23 kts 76°
2026-05-06 13:49 39.86988 -75.23542 31 ft 22 kts 76°
2026-05-06 13:49 39.86999 -75.23466 31 ft 7 kts 94°
2026-05-06 13:49 39.86981 -75.23427 30 ft 4 kts 153°
2026-05-06 13:49 39.86953 -75.23415 31 ft 5 kts 164°
2026-05-06 13:50 39.86921 -75.23410 31 ft 4 kts 191°
2026-05-06 13:50 39.86910 -75.23417 31 ft 0 kts 230°
2026-05-06 13:50 39.86900 -75.23437 31 ft 0 kts 248°
2026-05-06 13:50 39.86894 -75.23463 31 ft 17 kts 255°
2026-05-06 13:51 39.86804 -75.23884 31 ft 80 kts 256°
2026-05-06 13:51 39.86616 -75.24831 32 ft 135 kts 255°
2026-05-06 13:51 39.86416 -75.26114 731 ft 114 kts 263°
2026-05-06 13:51 39.86317 -75.26684 1833 ft 52 kts 258°
2026-05-06 13:52 39.85750 -75.27060 427 ft 152 kts 202°
2026-05-06 13:52 39.85488 -75.27508 2487 ft 55 kts 279°
2026-05-06 13:52 39.85850 -75.27949 786 ft 187 kts 348°
2026-05-06 13:52 39.87355 -75.27412 1444 ft 193 kts 33°
2026-05-06 13:53 39.88198 -75.26560 2913 ft 138 kts 33°
2026-05-06 13:53 39.88996 -75.25644 2910 ft 174 kts 52°
2026-05-06 13:53 39.89184 -75.24053 2947 ft 183 kts 123°
2026-05-06 13:53 39.88573 -75.23146 3222 ft 170 kts 164°
2026-05-06 13:54 39.87414 -75.22617 3698 ft 184 kts 177°
2026-05-06 13:54 39.86136 -75.22814 4113 ft 195 kts 204°
2026-05-06 13:54 39.84785 -75.23432 4739 ft 212 kts 202°
2026-05-06 13:54 39.83350 -75.23896 5682 ft 216 kts 198°
2026-05-06 13:55 39.81850 -75.24284 6506 ft 223 kts 195°
2026-05-06 13:55 39.80338 -75.24673 7351 ft 225 kts 195°
2026-05-06 13:55 39.78795 -75.25088 8252 ft 228 kts 195°
2026-05-06 13:55 39.77219 -75.25517 9186 ft 238 kts 195°
2026-05-06 13:56 39.75517 -75.25976 9981 ft 256 kts 194°
2026-05-06 13:56 39.73717 -75.26458 10742 ft 277 kts 195°
2026-05-06 13:56 39.71732 -75.26996 11174 ft 306 kts 195°
2026-05-06 13:56 39.69570 -75.27577 11719 ft 323 kts 195°
2026-05-06 13:57 39.67362 -75.28159 12624 ft 325 kts 195°
2026-05-06 13:57 39.65134 -75.28755 13435 ft 329 kts 196°
2026-05-06 13:57 39.62881 -75.29362 14168 ft 333 kts 196°
2026-05-06 13:57 39.60594 -75.29976 14803 ft 339 kts 196°
2026-05-06 13:58 39.58265 -75.30598 15450 ft 344 kts 196°
2026-05-06 13:58 39.55907 -75.31227 16102 ft 349 kts 197°
2026-05-06 13:58 39.53513 -75.31867 16756 ft 354 kts 197°
2026-05-06 13:58 39.51083 -75.32516 17388 ft 359 kts 197°
2026-05-06 13:59 39.48591 -75.33032 18001 ft 366 kts 194°
2026-05-06 13:59 39.46055 -75.33483 18587 ft 371 kts 194°
2026-05-06 13:59 39.43486 -75.33947 19126 ft 375 kts 194°
2026-05-06 13:59 39.41335 -75.34339 19575 ft 379 kts 194°
2026-05-06 14:00 39.38881 -75.34783 20090 ft 382 kts 194°